Time,TemperatureF,DewpointF,PressureIn,WindDirection,WindDirectionDegrees,WindSpeedMPH,WindSpeedGustMPH,Humidity,HourlyPrecipIn,Conditions,Clouds,dailyrainin,SoftwareType,DateUTC
2013-03-24 00:02:00,48.0,45.0,-100.00,NE,50,4.0,5.0,91,-99.99,,,-99.99,,2013-03-24 07:02:00,
2013-03-24 00:11:00,48.0,46.0,-100.00,NE,40,2.0,4.0,92,-99.99,,,-99.99,,2013-03-24 07:11:00,
2013-03-24 00:22:00,47.0,45.0,-100.00,NE,56,3.0,5.0,92,-99.99,,,-99.99,,2013-03-24 07:22:00,
2013-03-24 00:32:00,46.0,44.0,-100.00,NE,47,4.0,5.0,92,-99.99,,,-99.99,,2013-03-24 07:32:00,
2013-03-24 00:42:00,46.0,44.0,-100.00,NE,56,2.0,3.0,92,-99.99,,,-99.99,,2013-03-24 07:42:00,
2013-03-24 00:52:00,46.0,44.0,-100.00,NE,53,2.0,4.0,92,-99.99,,,-99.99,,2013-03-24 07:52:00,
2013-03-24 01:02:00,45.0,43.0,-100.00,NE,54,4.0,5.0,93,-99.99,,,-99.99,,2013-03-24 08:02:00,
2013-03-24 01:12:00,45.0,43.0,-100.00,NE,50,4.0,6.0,93,-99.99,,,-99.99,,2013-03-24 08:12:00,
2013-03-24 01:22:00,45.0,43.0,-100.00,NE,49,5.0,6.0,93,-99.99,,,-99.99,,2013-03-24 08:22:00,
2013-03-24 01:32:00,45.0,43.0,-100.00,NE,49,5.0,6.0,93,-99.99,,,-99.99,,2013-03-24 08:32:00,
2013-03-24 01:41:00,44.0,42.0,-100.00,NE,51,5.0,7.0,93,-99.99,,,-99.99,,2013-03-24 08:41:00,
2013-03-24 01:52:00,44.0,42.0,-100.00,NE,46,4.0,7.0,94,-99.99,,,-99.99,,2013-03-24 08:52:00,
2013-03-24 02:02:00,43.0,41.0,-100.00,NE,41,4.0,6.0,94,-99.99,,,-99.99,,2013-03-24 09:02:00,
2013-03-24 02:12:00,43.0,41.0,-100.00,NE,45,4.0,6.0,94,-99.99,,,-99.99,,2013-03-24 09:12:00,
2013-03-24 02:22:00,43.0,41.0,-100.00,ENE,60,3.0,5.0,94,-99.99,,,-99.99,,2013-03-24 09:22:00,
2013-03-24 02:33:00,43.0,41.0,-100.00,ENE,67,4.0,5.0,94,-99.99,,,-99.99,,2013-03-24 09:33:00,
2013-03-24 02:42:00,42.0,40.0,-100.00,ENE,60,5.0,6.0,94,-99.99,,,-99.99,,2013-03-24 09:42:00,
2013-03-24 02:52:00,42.0,40.0,-100.00,ENE,63,4.0,5.0,94,-99.99,,,-99.99,,2013-03-24 09:52:00,
2013-03-24 03:02:00,42.0,41.0,-100.00,ENE,67,5.0,6.0,95,-99.99,,,-99.99,,2013-03-24 10:02:00,
2013-03-24 03:12:00,42.0,41.0,-100.00,NE,48,5.0,7.0,95,-99.99,,,-99.99,,2013-03-24 10:12:00,
2013-03-24 03:22:00,42.0,41.0,-100.00,NE,51,4.0,5.0,95,-99.99,,,-99.99,,2013-03-24 10:22:00,
2013-03-24 03:32:00,42.0,41.0,-100.00,ENE,57,4.0,6.0,95,-99.99,,,-99.99,,2013-03-24 10:32:00,
2013-03-24 03:42:00,41.0,40.0,-100.00,ENE,57,5.0,6.0,95,-99.99,,,-99.99,,2013-03-24 10:42:00,
2013-03-24 03:52:00,41.0,40.0,-100.00,ENE,60,3.0,5.0,95,-99.99,,,-99.99,,2013-03-24 10:52:00,
2013-03-24 04:02:00,41.0,40.0,-100.00,NE,53,5.0,7.0,95,-99.99,,,-99.99,,2013-03-24 11:02:00,
2013-03-24 04:12:00,41.0,40.0,-100.00,NE,49,5.0,6.0,95,-99.99,,,-99.99,,2013-03-24 11:12:00,
2013-03-24 04:22:00,41.0,40.0,-100.00,NE,48,5.0,8.0,95,-99.99,,,-99.99,,2013-03-24 11:22:00,
2013-03-24 04:32:00,41.0,40.0,-100.00,NE,52,4.0,6.0,95,-99.99,,,-99.99,,2013-03-24 11:32:00,
2013-03-24 04:42:00,41.0,40.0,-100.00,ENE,64,4.0,5.0,95,-99.99,,,-99.99,,2013-03-24 11:42:00,
2013-03-24 04:51:00,41.0,40.0,-100.00,NE,55,5.0,7.0,95,-99.99,,,-99.99,,2013-03-24 11:51:00,
2013-03-24 05:02:00,40.0,39.0,-100.00,NE,53,5.0,7.0,96,-99.99,,,-99.99,,2013-03-24 12:02:00,
2013-03-24 05:12:00,41.0,40.0,-100.00,NE,51,5.0,6.0,96,-99.99,,,-99.99,,2013-03-24 12:12:00,
2013-03-24 05:22:00,40.0,39.0,-100.00,NE,55,4.0,5.0,96,-99.99,,,-99.99,,2013-03-24 12:22:00,
2013-03-24 05:32:00,40.0,39.0,-100.00,NE,53,4.0,5.0,96,-99.99,,,-99.99,,2013-03-24 12:32:00,
2013-03-24 05:42:00,40.0,39.0,-100.00,ENE,57,6.0,8.0,96,-99.99,,,-99.99,,2013-03-24 12:42:00,
2013-03-24 05:52:00,40.0,39.0,-100.00,NE,47,6.0,8.0,96,-99.99,,,-99.99,,2013-03-24 12:52:00,
2013-03-24 06:02:00,41.0,40.0,-100.00,NE,49,4.0,6.0,96,-99.99,,,-99.99,,2013-03-24 13:02:00,
2013-03-24 06:12:00,41.0,40.0,-100.00,NE,52,5.0,8.0,96,-99.99,,,-99.99,,2013-03-24 13:12:00,
2013-03-24 06:32:00,43.0,42.0,-100.00,NE,42,4.0,6.0,95,-99.99,,,-99.99,,2013-03-24 13:32:00,
2013-03-24 06:42:00,43.0,42.0,-100.00,NE,47,4.0,6.0,95,-99.99,,,-99.99,,2013-03-24 13:42:00,
2013-03-24 06:52:00,44.0,43.0,-100.00,NE,52,4.0,6.0,95,-99.99,,,-99.99,,2013-03-24 13:52:00,
2013-03-24 07:02:00,44.0,43.0,-100.00,NE,45,5.0,7.0,95,-99.99,,,-99.99,,2013-03-24 14:02:00,
2013-03-24 07:12:00,44.0,43.0,-100.00,NE,39,4.0,7.0,95,-99.99,,,-99.99,,2013-03-24 14:12:00,
2013-03-24 07:22:00,45.0,44.0,-100.00,NE,50,4.0,6.0,95,-99.99,,,-99.99,,2013-03-24 14:22:00,
2013-03-24 07:32:00,46.0,45.0,-100.00,NE,47,4.0,7.0,96,-99.99,,,-99.99,,2013-03-24 14:32:00,
2013-03-24 07:42:00,46.0,45.0,-100.00,NE,37,3.0,5.0,96,-99.99,,,-99.99,,2013-03-24 14:42:00,
2013-03-24 07:52:00,47.0,46.0,-100.00,NE,35,3.0,6.0,96,-99.99,,,-99.99,,2013-03-24 14:52:00,
2013-03-24 08:01:00,47.0,46.0,-100.00,NE,38,3.0,5.0,96,-99.99,,,-99.99,,2013-03-24 15:01:00,
2013-03-24 08:12:00,48.0,47.0,-100.00,NE,56,4.0,5.0,96,-99.99,,,-99.99,,2013-03-24 15:12:00,
2013-03-24 08:22:00,48.0,47.0,-100.00,NE,54,3.0,4.0,96,-99.99,,,-99.99,,2013-03-24 15:22:00,
2013-03-24 08:33:00,49.0,48.0,-100.00,NE,41,3.0,5.0,96,-99.99,,,-99.99,,2013-03-24 15:33:00,
2013-03-24 08:43:00,50.0,49.0,-100.00,North,8,3.0,5.0,96,-99.99,,,-99.99,,2013-03-24 15:43:00,
2013-03-24 08:52:00,50.0,49.0,-100.00,NE,46,3.0,6.0,96,-99.99,,,-99.99,,2013-03-24 15:52:00,
2013-03-24 09:02:00,50.0,49.0,-100.00,East,79,3.0,5.0,96,-99.99,,,-99.99,,2013-03-24 16:02:00,
2013-03-24 09:12:00,50.0,49.0,-100.00,ENE,57,3.0,4.0,96,-99.99,,,-99.99,,2013-03-24 16:12:00,
2013-03-24 09:22:00,50.0,49.0,-100.00,NW,308,3.0,5.0,96,-99.99,,,-99.99,,2013-03-24 16:22:00,
2013-03-24 09:32:00,51.0,50.0,-100.00,North,358,2.0,4.0,96,-99.99,,,-99.99,,2013-03-24 16:32:00,
2013-03-24 09:42:00,51.0,50.0,-100.00,WNW,286,4.0,7.0,96,-99.99,,,-99.99,,2013-03-24 16:42:00,
2013-03-24 09:52:00,52.0,51.0,-100.00,NW,312,5.0,8.0,95,-99.99,,,-99.99,,2013-03-24 16:52:00,
2013-03-24 10:02:00,53.0,51.0,-100.00,NNW,341,6.0,8.0,93,-99.99,,,-99.99,,2013-03-24 17:02:00,
2013-03-24 10:12:00,54.0,51.0,-100.00,NW,312,5.0,9.0,90,-99.99,,,-99.99,,2013-03-24 17:12:00,
2013-03-24 10:22:00,55.0,51.0,-100.00,NNW,328,5.0,7.0,85,-99.99,,,-99.99,,2013-03-24 17:22:00,
2013-03-24 10:32:00,57.0,51.0,-100.00,WNW,298,5.0,8.0,81,-99.99,,,-99.99,,2013-03-24 17:32:00,
2013-03-24 10:42:00,58.0,50.0,-100.00,West,261,4.0,8.0,76,-99.99,,,-99.99,,2013-03-24 17:42:00,
2013-03-24 10:52:00,60.0,50.0,-100.00,WSW,240,3.0,5.0,70,-99.99,,,-99.99,,2013-03-24 17:52:00,
2013-03-24 11:02:00,62.0,51.0,-100.00,SSE,163,3.0,6.0,66,-99.99,,,-99.99,,2013-03-24 18:02:00,
2013-03-24 11:12:00,63.0,49.0,-100.00,SE,136,3.0,7.0,60,-99.99,,,-99.99,,2013-03-24 18:12:00,
2013-03-24 11:22:00,64.0,50.0,-100.00,SW,215,4.0,7.0,60,-99.99,,,-99.99,,2013-03-24 18:22:00,
2013-03-24 11:32:00,64.0,51.0,-100.00,South,190,4.0,7.0,62,-99.99,,,-99.99,,2013-03-24 18:32:00,
2013-03-24 11:42:00,65.0,51.0,-100.00,South,191,4.0,7.0,61,-99.99,,,-99.99,,2013-03-24 18:42:00,
2013-03-24 11:52:00,65.0,51.0,-100.00,SSW,211,4.0,9.0,61,-99.99,,,-99.99,,2013-03-24 18:52:00,
2013-03-24 12:02:00,66.0,52.0,-100.00,SW,231,4.0,7.0,60,-99.99,,,-99.99,,2013-03-24 19:02:00,
2013-03-24 12:12:00,66.0,51.0,-100.00,SW,223,5.0,9.0,59,-99.99,,,-99.99,,2013-03-24 19:12:00,
2013-03-24 12:22:00,67.0,52.0,-100.00,SW,225,5.0,10.0,58,-99.99,,,-99.99,,2013-03-24 19:22:00,
2013-03-24 12:31:00,67.0,51.0,-100.00,SW,216,5.0,9.0,57,-99.99,,,-99.99,,2013-03-24 19:31:00,
2013-03-24 12:42:00,68.0,51.0,-100.00,SW,223,6.0,10.0,54,-99.99,,,-99.99,,2013-03-24 19:42:00,
2013-03-24 12:52:00,68.0,50.0,-100.00,SSW,211,6.0,10.0,52,-99.99,,,-99.99,,2013-03-24 19:52:00,
2013-03-24 13:02:00,68.0,50.0,-100.00,SSW,211,6.0,10.0,52,-99.99,,,-99.99,,2013-03-24 20:02:00,
2013-03-24 13:12:00,69.0,50.0,-100.00,SSW,207,5.0,8.0,50,-99.99,,,-99.99,,2013-03-24 20:12:00,
2013-03-24 13:22:00,70.0,50.0,-100.00,SW,219,6.0,9.0,49,-99.99,,,-99.99,,2013-03-24 20:22:00,
2013-03-24 13:32:00,70.0,49.0,-100.00,SSW,206,6.0,11.0,47,-99.99,,,-99.99,,2013-03-24 20:32:00,
2013-03-24 13:42:00,70.0,47.0,-100.00,SW,222,6.0,10.0,44,-99.99,,,-99.99,,2013-03-24 20:42:00,
2013-03-24 13:52:00,71.0,41.0,-100.00,SSW,213,6.0,10.0,34,-99.99,,,-99.99,,2013-03-24 20:52:00,
2013-03-24 14:02:00,71.0,45.0,-100.00,SW,216,7.0,11.0,39,-99.99,,,-99.99,,2013-03-24 21:02:00,
2013-03-24 14:11:00,69.0,49.0,-100.00,SSW,213,8.0,12.0,49,-99.99,,,-99.99,,2013-03-24 21:11:00,
2013-03-24 14:22:00,69.0,50.0,-100.00,SSW,212,7.0,11.0,50,-99.99,,,-99.99,,2013-03-24 21:22:00,
2013-03-24 14:32:00,69.0,48.0,-100.00,SW,214,7.0,12.0,48,-99.99,,,-99.99,,2013-03-24 21:32:00,
2013-03-24 14:43:00,69.0,50.0,-100.00,SSW,209,7.0,11.0,50,-99.99,,,-99.99,,2013-03-24 21:43:00,
2013-03-24 14:52:00,69.0,50.0,-100.00,SSW,203,7.0,10.0,50,-99.99,,,-99.99,,2013-03-24 21:52:00,
2013-03-24 15:02:00,69.0,50.0,-100.00,SSW,206,7.0,10.0,50,-99.99,,,-99.99,,2013-03-24 22:02:00,
2013-03-24 15:12:00,69.0,50.0,-100.00,SSW,211,7.0,11.0,50,-99.99,,,-99.99,,2013-03-24 22:12:00,
2013-03-24 15:22:00,68.0,49.0,-100.00,SSW,209,7.0,11.0,50,-99.99,,,-99.99,,2013-03-24 22:22:00,
2013-03-24 15:32:00,68.0,49.0,-100.00,SSW,204,7.0,11.0,50,-99.99,,,-99.99,,2013-03-24 22:32:00,
2013-03-24 15:42:00,69.0,48.0,-100.00,SSW,206,7.0,11.0,48,-99.99,,,-99.99,,2013-03-24 22:42:00,
2013-03-24 15:52:00,68.0,48.0,-100.00,SW,216,8.0,12.0,48,-99.99,,,-99.99,,2013-03-24 22:52:00,
2013-03-24 16:02:00,67.0,48.0,-100.00,SW,229,9.0,14.0,51,-99.99,,,-99.99,,2013-03-24 23:02:00,
2013-03-24 16:11:00,67.0,49.0,-100.00,SW,217,8.0,12.0,53,-99.99,,,-99.99,,2013-03-24 23:11:00,
2013-03-24 16:22:00,67.0,50.0,-100.00,SSW,211,7.0,12.0,55,-99.99,,,-99.99,,2013-03-24 23:22:00,
2013-03-24 16:32:00,67.0,51.0,-100.00,SW,218,6.0,10.0,56,-99.99,,,-99.99,,2013-03-24 23:32:00,
2013-03-24 16:42:00,67.0,51.0,-100.00,SW,221,8.0,12.0,57,-99.99,,,-99.99,,2013-03-24 23:42:00,
2013-03-24 16:52:00,66.0,51.0,-100.00,SW,228,8.0,12.0,59,-99.99,,,-99.99,,2013-03-24 23:52:00,
2013-03-24 17:02:00,66.0,50.0,-100.00,SW,224,6.0,10.0,57,-99.99,,,-99.99,,2013-03-25 00:02:00,
2013-03-24 17:12:00,67.0,50.0,-100.00,SW,223,6.0,9.0,55,-99.99,,,-99.99,,2013-03-25 00:12:00,
2013-03-24 17:22:00,67.0,51.0,-100.00,SW,214,6.0,9.0,57,-99.99,,,-99.99,,2013-03-25 00:22:00,
2013-03-24 17:32:00,66.0,50.0,-100.00,SW,218,6.0,9.0,56,-99.99,,,-99.99,,2013-03-25 00:32:00,
2013-03-24 17:42:00,66.0,50.0,-100.00,SW,218,6.0,9.0,56,-99.99,,,-99.99,,2013-03-25 00:42:00,
2013-03-24 17:52:00,66.0,52.0,-100.00,SW,216,7.0,10.0,60,-99.99,,,-99.99,,2013-03-25 00:52:00,
2013-03-24 18:02:00,65.0,52.0,-100.00,SSW,202,6.0,9.0,63,-99.99,,,-99.99,,2013-03-25 01:02:00,
2013-03-24 18:12:00,65.0,52.0,-100.00,SSW,202,5.0,8.0,62,-99.99,,,-99.99,,2013-03-25 01:12:00,
2013-03-24 18:22:00,64.0,51.0,-100.00,SW,214,5.0,8.0,62,-99.99,,,-99.99,,2013-03-25 01:22:00,
2013-03-24 18:32:00,63.0,51.0,-100.00,SW,214,5.0,9.0,65,-99.99,,,-99.99,,2013-03-25 01:32:00,
2013-03-24 18:42:00,62.0,51.0,-100.00,SW,222,6.0,8.0,68,-99.99,,,-99.99,,2013-03-25 01:42:00,
2013-03-24 18:52:00,62.0,52.0,-100.00,SW,221,4.0,7.0,70,-99.99,,,-99.99,,2013-03-25 01:52:00,
2013-03-24 19:01:00,62.0,52.0,-100.00,SSW,208,4.0,6.0,70,-99.99,,,-99.99,,2013-03-25 02:01:00,
2013-03-24 19:11:00,61.0,52.0,-100.00,SW,225,4.0,6.0,72,-99.99,,,-99.99,,2013-03-25 02:11:00,
2013-03-24 19:22:00,61.0,53.0,-100.00,SSW,212,4.0,6.0,74,-99.99,,,-99.99,,2013-03-25 02:22:00,
2013-03-24 19:32:00,60.0,52.0,-100.00,South,191,3.0,4.0,74,-99.99,,,-99.99,,2013-03-25 02:32:00,
2013-03-24 19:42:00,59.0,51.0,-100.00,SSW,194,2.0,4.0,75,-99.99,,,-99.99,,2013-03-25 02:42:00,
2013-03-24 19:52:00,59.0,51.0,-100.00,South,176,0.0,1.0,76,-99.99,,,-99.99,,2013-03-25 02:52:00,
2013-03-24 20:02:00,58.0,51.0,-100.00,North,-999,0.0,0.0,77,-99.99,,,-99.99,,2013-03-25 03:02:00,
2013-03-24 20:12:00,57.0,50.0,-100.00,NE,47,1.0,2.0,78,-99.99,,,-99.99,,2013-03-25 03:12:00,
2013-03-24 20:22:00,57.0,51.0,-100.00,NE,48,2.0,2.0,80,-99.99,,,-99.99,,2013-03-25 03:22:00,
2013-03-24 20:33:00,56.0,51.0,-100.00,NE,50,3.0,4.0,82,-99.99,,,-99.99,,2013-03-25 03:33:00,
2013-03-24 20:42:00,55.0,50.0,-100.00,NE,52,3.0,4.0,82,-99.99,,,-99.99,,2013-03-25 03:42:00,
2013-03-24 20:52:00,54.0,49.0,-100.00,NE,48,1.0,4.0,83,-99.99,,,-99.99,,2013-03-25 03:52:00,
2013-03-24 21:02:00,54.0,49.0,-100.00,South,178,0.0,1.0,83,-99.99,,,-99.99,,2013-03-25 04:02:00,
2013-03-24 21:12:00,54.0,49.0,-100.00,NNE,15,0.0,2.0,83,-99.99,,,-99.99,,2013-03-25 04:12:00,
2013-03-24 21:22:00,53.0,48.0,-100.00,NE,53,2.0,3.0,84,-99.99,,,-99.99,,2013-03-25 04:22:00,
2013-03-24 21:32:00,52.0,48.0,-100.00,NE,46,4.0,5.0,85,-99.99,,,-99.99,,2013-03-25 04:32:00,
2013-03-24 21:42:00,52.0,48.0,-100.00,NE,42,3.0,5.0,85,-99.99,,,-99.99,,2013-03-25 04:42:00,
2013-03-24 21:52:00,51.0,47.0,-100.00,ENE,58,3.0,5.0,85,-99.99,,,-99.99,,2013-03-25 04:52:00,
2013-03-24 22:02:00,51.0,47.0,-100.00,NE,53,3.0,4.0,86,-99.99,,,-99.99,,2013-03-25 05:02:00,
2013-03-24 22:12:00,50.0,46.0,-100.00,NE,47,3.0,4.0,86,-99.99,,,-99.99,,2013-03-25 05:12:00,
2013-03-24 22:22:00,50.0,46.0,-100.00,NE,54,4.0,4.0,86,-99.99,,,-99.99,,2013-03-25 05:22:00,
2013-03-24 22:32:00,49.0,45.0,-100.00,NE,49,4.0,5.0,86,-99.99,,,-99.99,,2013-03-25 05:32:00,
2013-03-24 22:42:00,49.0,45.0,-100.00,NE,43,4.0,5.0,87,-99.99,,,-99.99,,2013-03-25 05:42:00,
2013-03-24 22:52:00,48.0,44.0,-100.00,NE,41,4.0,6.0,87,-99.99,,,-99.99,,2013-03-25 05:52:00,
2013-03-24 23:02:00,48.0,44.0,-100.00,NE,51,4.0,6.0,87,-99.99,,,-99.99,,2013-03-25 06:02:00,
2013-03-24 23:12:00,48.0,45.0,-100.00,ENE,58,5.0,8.0,88,-99.99,,,-99.99,,2013-03-25 06:12:00,
2013-03-24 23:22:00,48.0,45.0,-100.00,NE,39,4.0,7.0,88,-99.99,,,-99.99,,2013-03-25 06:22:00,
2013-03-24 23:32:00,47.0,44.0,-100.00,NE,48,5.0,7.0,88,-99.99,,,-99.99,,2013-03-25 06:32:00,
2013-03-24 23:42:00,47.0,44.0,-100.00,NE,55,4.0,6.0,89,-99.99,,,-99.99,,2013-03-25 06:42:00,
2013-03-24 23:52:00,47.0,44.0,-100.00,NE,52,4.0,6.0,89,-99.99,,,-99.99,,2013-03-25 06:52:00,